Preview of NWS' New Version of Forecast
This preview is not operational and should not be used for support decisions.

Regional Weather Roundup (RWR)

Issued by National Weather Service (NWS)

                            
000
ASUS43 KLSX 221007
RWRMO 

WEATHER SUMMARY FOR MISSOURI
NATIONAL WEATHER SERVICE SPRINGFIELD MO
500 AM CDT WED MAY 22 2019

NOTE: "FAIR" INDICATES FEW OR NO CLOUDS BELOW 12,000 FEET WITH NO
       SIGNIFICANT WEATHER AND/OR OBSTRUCTIONS TO VISIBILITY.
       CURRENT SKY AND/OR WEATHER CONDITIONS ARE NOT AVAILABLE FOR
       CHILLICOTHE AND FARMINGTON.

MOZ001>031-035>038-043-044-053-054-221100-
...NORTHERN AND WESTERN MISSOURI...
  
CITY           SKY/WX    TMP DP  RH WIND       PRES   REMARKS
KANSAS CTY INT CLEAR     57  50  77 SW10      29.58R                  
KANSAS C DTWN  CLEAR     59  54  83 S6        29.58R                  
LEE'S SUMMIT   CLEAR     58  54  86 S12       29.60R                  
ST JOSEPH      CLEAR     57  50  77 SW18G24   29.56R                  
CHILLICOTHE      N/A     58  53  84 SE3       29.60R                  
KIRKSVILLE     CLEAR     55  52  89 S14       29.64R                  
     
$$
MOZ066>068-077>081-088>096-101>105-221100-
...SOUTHWEST MISSOURI...
  
CITY           SKY/WX    TMP DP  RH WIND       PRES   REMARKS
SPRINGFIELD    CLOUDY    57  50  77 S14       29.70R                  
JOPLIN         CLEAR     63  51  65 S14       29.65R                  
BRANSON        CLOUDY    57  50  77 SE9       29.75S                  
               
$$
MOZ032>034-039>042-045>050-055>058-069>072-221100-
...CENTRAL MISSOURI...  
  
CITY           SKY/WX    TMP DP  RH WIND       PRES   REMARKS
COLUMBIA       CLOUDY    57  52  83 SE13      29.68S                  
JEFFERSON CITY CLEAR     58  52  80 SE7       29.70R                  
ROLLA          CLEAR     56  50  80 SE9       29.75R                  
SEDALIA        CLEAR     56  51  84 S10       29.66R                  
WHITEMAN AFB   CLEAR     57  55  93 S7        29.60R                  
WARRENSBURG    PTCLDY    59  52  77 SE13G18   29.62R                  
OSAGE BEACH    PTCLDY    56  53  90 SE8       29.71R                  
               
$$
MOZ051-052-059>065-221100-
...EAST CENTRAL MISSOURI...
  
CITY           SKY/WX    TMP DP  RH WIND       PRES   REMARKS
ST LOUIS INTL  PTCLDY    59  56  89 SE7       29.77S                  
SPIRIT OF STL  MOCLDY    58  56  93 SE3       29.75F                  
ST CHARLES     PTCLDY    59  57  93 SE7       29.76S                  
                   
$$
MOZ072>076-082>087-097>100-106>115-221100-
...SOUTH CENTRAL AND SOUTHEAST MISSOURI...
  
CITY           SKY/WX    TMP DP  RH WIND       PRES   REMARKS
CAPE GIRARDEAU CLOUDY    62  58  86 S12       29.84R                  
FARMINGTON     PTCLDY    57  55  94 S8        29.83R                  
POPLAR BLUFF   CLOUDY    61  61 100 S3        29.84R                  
WEST PLAINS    CLEAR     55  54  96 SE3       29.81R                  
                                       
$$